Temp
5 5 5 5 5 4 3 2 2 2 2 4 2 4 3 4 4 4 5 5 6 6 5 6 6 6 6 6 6 6 5 4 4 3 3 3 2 2
5 5 4 4 4 4 3 3 2 1 2 1 2 3 3 2 3 4 4 4 4 5 6 6 5 6 6 6 6 5 4 4 4 3 3 2 2 1
4 5 5 4 4 4 3 2 2 1 -0 1 2 2 2 2 2 2 3 3 3 4 4 5 5 6 5 6 6 5 5 4 4 3 2 2 1 1
4 4 4 3 3 3 3 2 2 2 1 2 2 2 2 2 1 1 3 3 3 3 3 4 4 5 5 6 6 6 5 4 3 3 2 2 1 1
2 3 3 3 3 2 2 2 1 1 1 1 2 2 1 1 1 2 2 3 3 3 2 3 3 4 4 5 5 5 5 3 3 2 2 1 1 0
1 1 1 1 1 1 1 1 1 1 -0 0 -0 -0 -0 1 0 1 3 1 2 2 2 2 2 3 4 4 5 5 5 3 2 2 1 1 0 0
0 1 1 1 1 1 0 0 1 1 -1 -0 -0 -1 -0 -1 -0 -0 -1 -1 1 2 2 1 1 2 3 3 4 4 5 3 2 1 1 0 -0 -0
-0 0 0 0 0 0 0 -0 -0 -1 -2 -1 -1 -1 -1 -1 -1 -1 -2 -1 -1 -0 1 1 1 2 3 3 3 4 4 3 2 1 -0 -0 -0 -1
-3 -2 -1 -1 -1 -1 -1 -1 -1 -1 -2 -1 -1 -1 -1 -2 -2 -2 -2 -2 -2 -2 -1 -0 1 2 2 3 3 3 3 3 2 1 -0 -0 -1 -1
-2 -3 -4 -5 -4 -4 -4 -3 -3 -2 -2 -1 -2 -1 -1 -2 -2 -2 -3 -2 -2 -2 -1 -1 -0 1 1 2 2 2 3 2 1 0 -1 -1 -1 -3
-2 -3 -3 -4 -4 -4 -3 -4 -3 -3 -2 -2 -2 -2 -2 -3 -3 -3 -3 -2 -3 -2 -2 -1 -3 -1 -1 -0 -1 -2 2 1 -0 -1 -1 -2 -4 -4
-4 -4 -4 -4 -4 -4 -4 -3 -3 -3 -3 -3 -3 -3 -3 -3 -2 -3 -3 -3 -3 -3 -3 -3 -4 -2 -5 -5 -5 -5 -3 -1 -1 -1 -2 -3 -6 -4
-5 -5 -5 -4 -4 -4 -3 -3 -3 -3 -3 -3 -3 -3 -2 -2 -2 -3 -3 -3 -3 -3 -3 -3 -5 -4 -5 -6 -5 -3 -2 -3 -3 -3 -4 -6 -6 -4
-5 -6 -6 -5 -4 -4 -3 -3 -3 -3 -3 -3 -3 -3 -3 -3 -3 -3 -3 -3 -3 -3 -2 -3 -4 -4 -4 -6 -6 -5 -5 -4 -4 -5 -6 -6 -6 -5
-5 -5 -5 -4 -4 -4 -3 -3 -3 -3 -4 -4 -4 -5 -5 -5 -4 -3 -4 -4 -4 -4 -4 -4 -4 -4 -4 -5 -7 -7 -7 -7 -6 -6 -6 -6 -5 -6
-5 -5 -5 -5 -4 -4 -4 -3 -4 -4 -5 -5 -5 -5 -6 -5 -5 -5 -5 -5 -5 -5 -6 -6 -5 -4 -5 -5 -5 -6 -6 -6 -7 -6 -6 -7 -7 -7
-6 -5 -5 -5 -4 -4 -4 -4 -5 -5 -5 -6 -6 -6 -6 -6 -6 -6 -5 -5 -5 -6 -6 -6 -6 -5 -5 -4 -6 -7 -7 -7 -7 -7 -7 -8 -9 -9
-6 -6 -6 -5 -5 -4 -4 -5 -5 -6 -6 -6 -6 -6 -6 -6 -6 -6 -6 -5 -5 -6 -6 -6 -6 -6 -6 -7 -7 -7 -7 -7 -8 -8 -8 -8 -9 -10
-7 -7 -7 -6 -5 -5 -5 -6 -6 -6 -6 -6 -6 -6 -6 -6 -6 -6 -6 -6 -6 -6 -6 -7 -6 -6 -6 -8 -9 -8 -7 -7 -8 -9 -9 -9 -9 -10
-6 -6 -6 -6 -6 -6 -6 -6 -6 -6 -6 -6 -6 -6 -6 -6 -6 -6 -6 -6 -6 -7 -7 -6 -6 -6 -5 -7 -9 -9 -8 -7 -8 -8 -9 -10 -11 -11
-6 -6 -7 -7 -7 -6 -7 -7 -6 -6 -6 -6 -5 -6 -6 -6 -6 -6 -6 -6 -7 -7 -7 -7 -7 -7 -6 -6 -8 -9 -9 -10 -10 -9 -9 -10 -11 -11
-7 -7 -7 -7 -7 -7 -7 -7 -6 -6 -6 -6 -6 -6 -6 -6 -6 -6 -7 -7 -7 -7 -7 -8 -8 -8 -7 -6 -7 -9 -10 -11 -11 -11 -11 -11 -11 -11
-7 -7 -7 -7 -7 -7 -7 -7 -7 -7 -6 -6 -6 -6 -6 -6 -6 -7 -7 -7 -7 -7 -7 -8 -8 -8 -8 -8 -8 -9 -10 -11 -11 -11 -11 -11 -11 -11
Height
1483 1480 1478 1476 1473 1470 1467 1465 1461 1455 1450 1442 1442 1445 1443 1443 1442 1439 1436 1436 1437 1442 1443 1445 1446 1450 1454 1457 1461 1468 1475 1482 1487 1494 1499 1503 1509 1514
1476 1474 1471 1469 1466 1463 1460 1458 1456 1453 1446 1443 1440 1438 1437 1435 1434 1433 1430 1429 1430 1430 1432 1436 1437 1439 1445 1447 1451 1459 1467 1474 1479 1486 1493 1499 1503 1509
1470 1466 1463 1462 1460 1456 1454 1452 1450 1448 1443 1435 1435 1432 1430 1429 1427 1426 1424 1424 1424 1423 1424 1426 1426 1430 1437 1436 1441 1448 1457 1465 1473 1479 1485 1492 1498 1500
1462 1460 1456 1455 1453 1451 1448 1446 1444 1442 1439 1431 1430 1425 1423 1424 1421 1416 1415 1415 1414 1414 1414 1415 1418 1422 1427 1431 1433 1439 1448 1456 1466 1472 1477 1483 1491 1497
1454 1452 1450 1447 1445 1443 1441 1439 1436 1434 1432 1427 1421 1421 1418 1417 1415 1411 1408 1406 1408 1409 1409 1408 1411 1415 1419 1421 1427 1433 1436 1448 1458 1465 1471 1475 1484 1493
1448 1445 1444 1442 1439 1436 1434 1432 1429 1426 1424 1420 1415 1415 1412 1410 1409 1404 1398 1399 1401 1401 1400 1401 1402 1406 1410 1414 1417 1419 1429 1440 1451 1457 1463 1469 1475 1489
1442 1440 1437 1434 1431 1429 1426 1422 1421 1418 1416 1413 1408 1407 1405 1403 1403 1400 1398 1393 1389 1392 1391 1392 1394 1396 1400 1405 1408 1411 1417 1425 1435 1447 1454 1463 1471 1479
1432 1430 1427 1424 1421 1418 1416 1414 1412 1410 1409 1407 1402 1400 1399 1399 1398 1397 1394 1390 1386 1386 1384 1386 1388 1389 1390 1395 1401 1406 1409 1415 1424 1436 1446 1454 1464 1475
1426 1421 1417 1414 1411 1406 1403 1401 1401 1400 1401 1400 1396 1393 1392 1392 1392 1390 1388 1385 1383 1382 1380 1380 1381 1379 1382 1386 1392 1398 1404 1409 1417 1427 1437 1448 1458 1468
1419 1414 1410 1405 1403 1400 1395 1392 1390 1390 1391 1391 1389 1386 1385 1384 1383 1381 1379 1376 1375 1373 1373 1374 1373 1374 1378 1381 1386 1390 1397 1404 1413 1422 1434 1445 1455 1464
1411 1407 1404 1398 1396 1393 1389 1385 1382 1380 1382 1382 1381 1379 1377 1376 1374 1372 1370 1370 1368 1367 1368 1371 1371 1372 1376 1380 1385 1393 1393 1399 1409 1421 1435 1447 1455 1463
1403 1399 1397 1392 1387 1385 1381 1378 1375 1374 1374 1374 1373 1372 1369 1367 1366 1366 1365 1364 1364 1365 1367 1370 1371 1374 1382 1387 1390 1396 1398 1404 1414 1425 1437 1446 1455 1463
1396 1391 1388 1384 1380 1378 1375 1372 1370 1368 1368 1367 1366 1364 1362 1361 1360 1359 1358 1358 1360 1362 1364 1367 1370 1372 1377 1390 1399 1403 1404 1410 1418 1428 1437 1446 1455 1462
1391 1386 1381 1378 1375 1372 1370 1367 1365 1364 1363 1362 1359 1358 1356 1355 1355 1354 1354 1355 1357 1361 1363 1365 1367 1371 1374 1387 1394 1404 1409 1414 1420 1429 1438 1446 1453 1459
1387 1380 1376 1373 1371 1368 1366 1364 1362 1360 1359 1357 1355 1354 1353 1353 1352 1352 1354 1356 1359 1361 1363 1365 1369 1374 1379 1383 1391 1402 1408 1419 1425 1432 1439 1445 1451 1454
1381 1375 1372 1370 1368 1365 1363 1362 1360 1357 1355 1353 1352 1352 1351 1351 1352 1354 1357 1359 1361 1363 1367 1371 1375 1378 1382 1389 1394 1402 1410 1415 1425 1433 1439 1444 1449 1453
1376 1372 1369 1367 1365 1363 1362 1360 1358 1355 1354 1352 1351 1351 1352 1352 1354 1358 1360 1361 1362 1365 1369 1373 1377 1382 1387 1392 1398 1405 1411 1418 1426 1432 1439 1443 1447 1451
1374 1370 1367 1365 1363 1362 1361 1359 1357 1356 1354 1352 1352 1353 1353 1355 1358 1361 1362 1363 1365 1368 1371 1376 1380 1384 1390 1397 1404 1407 1415 1421 1427 1433 1438 1441 1445 1450
1373 1369 1366 1364 1362 1360 1359 1358 1357 1357 1355 1354 1355 1356 1357 1360 1362 1363 1365 1367 1369 1372 1375 1379 1383 1387 1389 1395 1405 1412 1417 1422 1427 1432 1438 1442 1446 1450
1372 1368 1365 1363 1361 1359 1358 1358 1358 1357 1357 1357 1358 1359 1362 1363 1365 1367 1368 1371 1373 1377 1380 1384 1388 1392 1394 1397 1402 1413 1421 1425 1429 1433 1437 1442 1446 1449
1371 1368 1365 1362 1360 1358 1357 1358 1358 1359 1359 1359 1361 1363 1365 1367 1369 1371 1373 1376 1379 1382 1385 1389 1393 1397 1400 1403 1408 1414 1421 1426 1433 1436 1438 1441 1444 1447
1370 1367 1364 1361 1359 1357 1357 1358 1358 1360 1360 1362 1363 1366 1368 1370 1373 1375 1378 1380 1384 1387 1389 1393 1397 1401 1404 1407 1411 1415 1421 1427 1430 1434 1437 1440 1442 1443
1368 1366 1363 1360 1358 1357 1357 1357 1358 1360 1361 1363 1365 1367 1370 1372 1375 1378 1381 1384 1387 1390 1393 1395 1399 1403 1406 1410 1414 1418 1423 1426 1430 1433 1436 1437 1439 1441
Wind_Speed
29 29 30 28 26 26 27 30 30 25 30 36 24 27 25 25 24 22 21 25 24 30 23 30 48 55 54 51 46 40 36 39 37 36 35 32 31 29
32 32 30 29 27 25 26 26 23 24 26 27 33 28 31 33 29 26 25 24 26 29 31 31 26 53 55 58 53 44 39 40 40 38 38 36 34 32
33 33 31 27 26 27 25 28 28 30 27 38 33 29 28 30 29 28 25 26 25 27 29 32 26 34 41 60 57 51 46 42 41 41 42 40 38 35
32 34 33 26 28 27 28 27 28 29 29 38 37 36 33 29 28 30 28 25 29 27 29 30 29 28 43 56 57 56 50 45 42 46 47 45 40 36
27 29 33 30 30 27 29 32 34 32 31 37 40 39 35 32 33 32 32 29 24 29 33 32 31 34 30 45 51 56 55 48 51 51 49 46 43 40
24 25 28 29 29 30 31 32 32 35 31 33 37 32 32 32 33 34 36 31 30 30 32 32 33 31 32 31 52 64 54 54 54 55 51 49 41 39
29 31 33 33 34 35 34 35 34 32 30 31 34 32 34 30 30 30 35 35 34 30 31 29 30 31 32 35 39 60 63 63 61 60 54 47 40 32
31 33 34 34 34 38 42 39 37 33 29 31 33 33 33 31 29 32 32 30 32 32 29 24 28 32 34 37 37 55 67 67 64 62 58 48 36 33
31 33 34 32 33 34 36 38 38 36 28 30 33 35 35 31 30 32 31 30 31 32 27 31 30 33 32 36 35 55 63 67 68 66 55 45 33 33
33 33 34 33 31 32 32 31 32 33 29 25 29 32 31 30 31 29 26 26 30 27 26 26 22 27 33 35 36 56 67 70 65 60 47 39 35 30
31 31 31 33 31 29 29 30 33 31 24 21 24 27 28 31 28 23 22 21 20 20 21 25 17 23 24 30 44 55 71 71 63 46 38 35 30 29
34 33 30 29 30 25 26 26 30 27 21 22 23 25 28 24 20 20 18 17 20 17 20 18 24 28 20 30 39 46 54 58 44 38 35 30 28 28
37 37 33 29 24 24 23 23 24 22 22 23 24 23 20 17 15 14 12 13 18 22 22 26 32 28 24 36 36 37 42 39 37 34 30 26 23 21
37 34 32 26 21 22 20 19 18 19 20 22 21 18 16 14 11 10 9 9 14 23 21 28 32 36 42 40 36 31 31 32 31 29 27 24 21 20
34 32 27 21 19 18 16 15 16 18 18 16 12 12 11 9 7 6 5 9 13 11 15 24 30 33 44 45 40 36 34 28 24 23 22 21 20 19
33 29 22 15 16 15 15 16 18 15 11 9 9 7 5 3 3 4 8 8 8 16 14 10 25 27 36 39 36 36 33 24 26 22 20 18 16 15
28 23 17 14 15 13 15 16 16 11 9 7 5 3 2 4 6 8 8 10 14 18 17 15 21 23 24 28 35 35 33 21 27 23 21 21 19 17
24 20 17 14 12 11 13 15 12 9 7 5 2 2 3 6 9 10 10 12 20 21 21 20 21 24 25 25 27 31 29 24 26 21 20 20 20 17
20 16 15 12 11 10 9 10 9 7 4 4 4 5 6 9 10 11 13 18 22 23 23 22 24 27 31 28 27 27 26 23 24 22 18 14 14 13
19 15 12 11 9 7 5 6 6 4 2 5 6 6 8 10 11 13 17 20 22 23 24 23 23 23 25 32 32 27 19 17 20 20 19 17 14 13
17 13 11 11 9 6 3 4 3 2 4 7 8 8 9 10 13 16 19 21 23 24 25 22 19 17 17 25 32 28 21 18 11 11 14 14 13 14
16 14 12 11 8 4 3 3 3 4 7 9 9 9 11 12 15 19 21 22 23 22 23 22 20 17 17 21 27 28 24 20 18 16 14 13 11 8
17 14 12 10 7 4 2 4 4 6 9 10 10 11 13 14 16 18 19 19 20 21 21 21 19 16 18 20 20 21 19 17 13 10 9 10 12 14
Wind_Direction
302 303 302 305 309 308 309 289 285 280 290 300 297 290 295 292 287 293 288 286 268 257 263 266 251 231 231 233 231 225 211 207 203 200 201 194 196 196
299 293 297 299 298 301 307 303 288 288 288 299 308 301 293 289 288 283 283 288 279 277 267 254 269 242 235 234 230 223 215 210 205 201 201 197 195 196
303 293 290 290 288 296 295 296 289 283 297 305 309 309 301 298 295 285 280 269 280 274 272 265 266 249 247 236 228 227 217 210 209 212 196 198 197 197
302 301 292 286 286 289 294 292 290 286 290 296 303 306 307 306 301 297 298 281 268 276 279 270 265 257 253 242 239 226 218 208 205 198 199 196 200 203
299 302 304 287 279 285 288 288 290 290 292 294 294 298 298 301 305 304 301 299 282 279 274 267 267 258 258 252 241 235 216 203 201 201 197 201 203 207
292 295 292 293 286 292 296 289 289 290 288 287 293 288 290 299 300 307 304 300 295 298 291 269 263 265 256 257 245 231 225 204 202 200 202 202 202 209
295 292 292 288 284 280 289 289 289 289 287 286 291 289 290 295 303 307 301 300 296 302 297 274 273 260 253 250 254 237 217 204 200 201 199 204 205 215
298 296 295 292 287 281 280 282 288 289 279 276 288 287 287 292 296 297 296 297 295 303 299 292 286 260 256 249 244 228 213 200 198 200 199 204 204 209
309 309 308 304 299 297 290 285 281 282 275 266 274 280 285 289 292 291 291 286 285 297 289 281 274 257 261 256 240 216 215 202 198 200 200 200 197 203
308 310 311 311 307 308 306 301 292 285 281 267 272 276 281 284 288 288 285 285 286 287 281 256 241 231 230 236 235 213 213 196 197 195 194 191 197 192
317 315 315 313 309 305 299 298 297 293 285 277 285 283 281 286 284 284 283 283 272 266 255 234 202 191 186 182 177 181 198 194 187 185 185 190 184 191
322 322 318 314 315 310 300 297 295 297 293 288 286 287 289 284 279 273 275 275 261 241 215 190 170 169 117 141 157 161 173 180 176 176 184 184 183 195
322 320 320 320 314 310 306 297 294 295 291 293 296 295 292 288 284 278 276 270 264 234 216 203 174 164 148 145 151 159 167 167 170 175 177 177 187 207
322 319 318 319 314 313 308 306 300 298 300 299 294 294 293 294 290 282 278 262 259 247 237 209 188 177 162 153 148 158 161 164 168 167 173 185 199 212
324 322 319 315 316 318 321 317 318 308 302 299 301 299 294 289 288 283 250 241 233 217 201 200 197 180 172 163 154 158 153 159 169 174 182 193 202 203
326 323 323 316 319 330 335 331 324 320 318 315 309 303 285 254 225 226 208 195 178 152 168 173 187 187 175 172 166 164 169 160 175 179 183 186 189 193
325 325 327 324 328 341 339 328 330 333 331 326 324 291 206 161 176 184 181 163 153 142 135 145 177 172 170 180 175 170 171 166 171 173 177 174 172 176
333 328 324 322 324 329 326 327 334 337 347 1 32 114 134 158 166 165 163 157 143 137 136 143 154 153 153 157 178 175 173 167 169 174 178 179 174 178
336 327 324 324 322 321 322 328 330 335 13 64 94 116 145 161 162 163 157 148 140 140 139 143 150 155 149 142 158 174 173 169 172 170 173 180 185 187
341 334 330 330 332 325 334 330 327 336 94 109 113 128 149 152 152 151 149 146 142 140 138 142 146 150 153 148 151 159 167 172 174 176 173 177 186 203
342 338 335 334 335 333 347 323 309 257 151 136 131 139 152 154 149 149 149 145 143 142 141 143 146 150 155 151 147 148 150 150 163 186 188 197 210 222
334 329 331 334 334 334 333 301 268 214 169 153 144 149 155 154 151 150 151 150 150 150 147 144 142 142 149 161 158 157 159 169 180 189 195 211 223 232
325 321 317 323 329 319 299 273 243 212 182 172 165 166 165 164 160 158 157 159 158 156 154 147 143 147 146 153 159 160 165 169 177 192 213 232 247 256